Latest Coastal Weather Observations for Browse Island

IDW60701

Issued at 10:52 pm WST Friday 28 August 2015 (issued every 10 minutes, with the page automatically refreshed every 10 minutes)

About coastal observations | Map of coastal stations | Coastal observations for WA | Marine services | Other Formats
Station Details ID: 200784 Name: BROWSE ISLAND Lat: -14.11 Lon: 123.55 Height: 3.7 m
Data from the previous 72 hours. | See also: Recent months at Browse Island
Date/Time
WST
Temp

°C
Wind Pressure Rain
since 9am
mm
Weather Cloud Vis
km
Sea
Height
m
Swell
Dir
 
Speed
knots
Gust
knots
hPa Trend Height
m
Period
s
Dir
28/10:30pm 26.0 SSW 7 - 1016.0 - - - - - - - - -
28/10:00pm 25.8 SSW 8 - 1016.4 - - - - - - - - -
28/09:30pm 26.0 S 9 - 1016.0 - - - - - - - - -
28/09:00pm 25.9 S 9 - 1016.5 - - - - - - - - -
28/08:30pm 26.0 S 8 - 1016.0 - - - - - - - - -
28/08:00pm 26.0 S 8 - 1016.0 - - - - - - - - -
28/07:30pm 26.0 S 8 - 1015.0 - - - - - - - - -
28/07:00pm 26.1 SSE 8 - 1015.2 - - - - - - - - -
28/06:30pm 26.0 S 8 - 1014.0 - - - - - - - - -
28/06:00pm 26.1 S 7 - 1014.4 - - - - - - - - -
28/05:30pm 26.0 S 6 - 1014.0 - - - - - - - - -
28/05:00pm 26.2 S 5 - 1013.8 - - - - - - - - -
28/04:30pm 27.0 SSE 5 - 1013.0 - - - - - - - - -
28/04:00pm 26.2 SSE 4 - 1013.3 - - - - - - - - -
28/03:30pm 27.0 S 6 - 1013.0 - - - - - - - - -
28/03:00pm 27.5 S 6 - 1013.3 - - - - - - - - -
28/02:30pm 27.0 S 5 - 1013.0 - - - - - - - - -
28/02:00pm 26.4 S 6 - 1013.7 - - - - - - - - -
28/01:30pm 27.0 S 7 - 1014.0 - - - - - - - - -
28/01:00pm 26.9 S 6 - 1014.3 - - - - - - - - -
28/12:30pm 27.0 S 5 - 1014.0 - - - - - - - - -
28/12:00pm 27.2 S 7 - 1015.3 - - - - - - - - -
28/11:30am 27.0 S 7 - 1015.0 - - - - - - - - -
28/11:00am 26.5 S 7 - 1016.0 - - - - - - - - -
28/10:30am 27.0 SSE 7 - 1016.0 - - - - - - - - -
28/10:00am 26.5 S 7 - 1016.7 - - - - - - - - -
28/09:30am 26.0 S 6 - 1016.0 - - - - - - - - -
28/09:00am 26.0 S 6 - 1016.8 - - - - - - - - -
28/08:30am 26.0 S 5 - 1016.0 - - - - - - - - -
28/08:00am 26.1 S 3 - 1016.4 - - - - - - - - -
28/07:30am 26.0 SSE 4 - 1016.0 - - - - - - - - -
28/07:00am 26.0 SE 2 - 1015.8 - - - - - - - - -
28/06:30am 25.0 S 4 - 1015.0 - - - - - - - - -
28/06:00am 25.4 SSE 4 - 1015.2 - - - - - - - - -
28/05:30am 25.0 S 5 - 1015.0 - - - - - - - - -
28/05:00am 25.4 S 4 - 1014.7 - - - - - - - - -
28/04:30am 25.0 S 5 - 1014.0 - - - - - - - - -
28/04:00am 25.4 SSW 4 - 1014.3 - - - - - - - - -
28/03:30am 26.0 S 4 - 1014.0 - - - - - - - - -
28/03:00am 25.5 S 5 - 1014.0 - - - - - - - - -
28/02:30am 26.0 S 5 - 1014.0 - - - - - - - - -
28/02:00am 25.4 S 6 - 1014.2 - - - - - - - - -
28/01:30am 26.0 S 6 - 1014.0 - - - - - - - - -
28/01:00am 25.6 S 6 - 1014.6 - - - - - - - - -
28/12:30am 26.0 S 7 - 1014.0 - - - - - - - - -
28/12:00am 25.7 S 7 - 1015.0 - - - - - - - - -
 
Date/Time
WST
Temp

°C
Wind Pressure Rain
since 9am
mm
Weather Cloud Vis
km
Sea
Height
m
Swell
Dir
 
Speed
knots
Gust
knots
hPa Trend Height
m
Period
s
Dir
27/11:30pm 26.0 S 6 - 1015.0 - - - - - - - - -
27/11:00pm 25.7 S 6 - 1015.3 - - - - - - - - -
27/10:30pm 26.0 S 6 - 1015.0 - - - - - - - - -
27/10:00pm 25.7 S 7 - 1015.3 - - - - - - - - -
27/09:30pm 26.0 S 8 - 1015.0 - - - - - - - - -
27/09:00pm 25.6 S 8 - 1015.3 - - - - - - - - -
27/08:30pm 26.0 S 8 - 1015.0 - - - - - - - - -
27/08:00pm 25.6 S 8 - 1015.1 - - - - - - - - -
27/07:30pm 26.0 S 9 - 1015.0 - - - - - - - - -
27/07:00pm 25.9 S 9 - 1014.6 - - - - - - - - -
27/06:30pm 26.0 S 8 - 1014.0 - - - - - - - - -
27/06:00pm 26.0 S 9 - 1014.0 - - - - - - - - -
27/05:30pm 26.0 S 8 - 1013.0 - - - - - - - - -
27/05:00pm 26.1 S 8 - 1013.8 - - - - - - - - -
27/04:30pm 26.0 S 8 - 1013.0 - - - - - - - - -
27/04:00pm 26.3 S 9 - 1013.5 - - - - - - - - -
27/03:30pm 26.0 S 10 - 1013.0 - - - - - - - - -
27/03:00pm 26.5 S 11 - 1013.3 - - - - - - - - -
27/02:30pm 26.0 S 11 - 1013.0 - - - - - - - - -
27/02:00pm 26.5 S 12 - 1013.6 - - - - - - - - -
27/01:30pm 27.0 S 11 - 1014.0 - - - - - - - - -
27/01:00pm 27.0 S 10 - 1014.2 - - - - - - - - -
27/12:30pm 27.0 S 9 - 1014.0 - - - - - - - - -
27/12:00pm 27.0 S 9 - 1014.8 - - - - - - - - -
27/11:30am 27.0 S 9 - 1015.0 - - - - - - - - -
27/11:00am 26.7 SSE 8 - 1015.5 - - - - - - - - -
27/10:30am 26.0 S 9 - 1015.0 - - - - - - - - -
27/10:00am 26.7 SSE 7 - 1016.1 - - - - - - - - -
27/09:30am 26.0 S 7 - 1016.0 - - - - - - - - -
27/09:00am 26.7 SSE 8 - 1016.3 - - - - - - - - -
27/08:30am 27.0 SSE 7 - 1016.0 - - - - - - - - -
27/08:00am 25.8 S 9 - 1015.8 - - - - - - - - -
27/07:30am 26.0 S 8 - 1015.0 - - - - - - - - -
27/07:00am 25.7 SSE 6 - 1015.1 - - - - - - - - -
27/06:30am 26.0 SSE 6 - 1014.0 - - - - - - - - -
27/06:00am 25.6 S 6 - 1014.3 - - - - - - - - -
27/05:30am 26.0 S 7 - 1014.0 - - - - - - - - -
27/05:00am 25.5 SSE 6 - 1013.7 - - - - - - - - -
27/04:30am 26.0 S 7 - 1013.0 - - - - - - - - -
27/04:00am 25.5 S 6 - 1013.5 - - - - - - - - -
27/03:30am 26.0 S 5 - 1013.0 - - - - - - - - -
27/03:00am 25.6 S 4 - 1013.6 - - - - - - - - -
27/02:30am 26.0 SSW 4 - 1013.0 - - - - - - - - -
27/02:00am 25.8 S 5 - 1013.8 - - - - - - - - -
27/01:30am 26.0 S 6 - 1014.0 - - - - - - - - -
27/01:00am 25.8 S 6 - 1014.1 - - - - - - - - -
27/12:30am 26.0 S 6 - 1014.0 - - - - - - - - -
27/12:00am 25.9 SSW 5 - 1014.4 - - - - - - - - -
 
Date/Time
WST
Temp

°C
Wind Pressure Rain
since 9am
mm
Weather Cloud Vis
km
Sea
Height
m
Swell
Dir
 
Speed
knots
Gust
knots
hPa Trend Height
m
Period
s
Dir
26/11:30pm 26.0 SSW 6 - 1014.0 - - - - - - - - -
26/11:00pm 26.1 SSW 5 - 1014.8 - - - - - - - - -
26/10:30pm 26.0 S 4 - 1015.0 - - - - - - - - -
26/10:00pm 26.1 SSE 4 - 1014.9 - - - - - - - - -
26/09:30pm 26.0 S 4 - 1014.0 - - - - - - - - -
26/09:00pm 26.2 S 5 - 1014.8 - - - - - - - - -
26/08:30pm 26.0 S 6 - 1014.0 - - - - - - - - -
26/08:00pm 26.2 S 6 - 1014.4 - - - - - - - - -
26/07:30pm 26.0 S 7 - 1014.0 - - - - - - - - -
26/07:00pm 26.3 S 6 - 1014.1 - - - - - - - - -
26/06:30pm 26.0 SSE 5 - 1013.0 - - - - - - - - -
26/06:00pm 26.3 S 6 - 1013.4 - - - - - - - - -
26/05:30pm 26.0 S 6 - 1013.0 - - - - - - - - -
26/05:00pm 26.5 S 6 - 1013.1 - - - - - - - - -
26/04:30pm 27.0 S 5 - 1013.0 - - - - - - - - -
26/04:00pm 26.5 S 6 - 1012.9 - - - - - - - - -
26/03:30pm 26.0 S 5 - 1012.0 - - - - - - - - -
26/03:00pm 27.2 S 4 - 1012.9 - - - - - - - - -
26/02:30pm 27.0 S 5 - 1013.0 - - - - - - - - -
26/02:00pm 28.3 NE 3 - 1013.4 - - - - - - - - -
26/01:30pm 27.0 NE 3 - 1014.0 - - - - - - - - -
26/01:00pm 27.1 ESE 4 - 1014.2 - - - - - - - - -
26/12:30pm 27.0 ENE 5 - 1014.0 - - - - - - - - -
26/12:00pm 28.0 SE 4 - 1015.1 - - - - - - - - -
26/11:30am 27.0 S 4 - 1015.0 - - - - - - - - -
26/11:00am 26.5 S 5 - 1016.0 - - - - - - - - -
26/10:30am 26.0 S 7 - 1016.0 - - - - - - - - -
26/10:00am 26.1 S 6 - 1016.8 - - - - - - - - -
26/09:30am 27.0 S 6 - 1017.0 - - - - - - - - -
26/09:00am 26.2 SSE 5 - 1017.1 - - - - - - - - -
26/08:30am 26.0 S 4 - 1016.0 - - - - - - - - -
26/08:00am 25.8 S 4 - 1016.4 - - - - - - - - -
26/07:30am 26.0 S 5 - 1016.0 - - - - - - - - -
26/07:00am 25.5 S 6 - 1015.9 - - - - - - - - -
26/06:30am 25.0 S 7 - 1015.0 - - - - - - - - -
26/06:00am 25.3 S 6 - 1015.2 - - - - - - - - -
26/05:30am 25.0 S 6 - 1014.0 - - - - - - - - -
26/05:00am 25.3 S 6 - 1014.5 - - - - - - - - -
26/04:30am 25.0 S 6 - 1014.0 - - - - - - - - -
26/04:00am 25.3 S 5 - 1014.1 - - - - - - - - -
26/03:30am 25.0 S 6 - 1014.0 - - - - - - - - -
26/03:00am 25.3 S 6 - 1013.9 - - - - - - - - -
26/02:30am 25.0 S 6 - 1014.0 - - - - - - - - -
26/02:00am 25.3 S 6 - 1014.2 - - - - - - - - -
26/01:30am 25.0 S 5 - 1014.0 - - - - - - - - -
26/01:00am 25.4 SSW 5 - 1014.6 - - - - - - - - -
26/12:30am 25.0 SSW 5 - 1015.0 - - - - - - - - -
26/12:00am 25.5 SSW 4 - 1014.9 - - - - - - - - -
 
Date/Time
WST
Temp

°C
Wind Pressure Rain
since 9am
mm
Weather Cloud Vis
km
Sea
Height
m
Swell
Dir
 
Speed
knots
Gust
knots
hPa Trend Height
m
Period
s
Dir
25/11:30pm 26.0 SSW 5 - 1015.0 - - - - - - - - -
25/11:00pm 25.6 SSW 5 - 1015.3 - - - - - - - - -

Other Formats:

Comma delimited format used in spreadsheet applications
http://www.bom.gov.au/fwo/IDW60701/IDW60701.94103.axf

JavaScript Object Notation format (JSON) in row-major order
http://www.bom.gov.au/fwo/IDW60701/IDW60701.94103.json